ANGOSAT 2

Last updated on Sat Jun 21 2025 00:02:47 GMT+0000 (Coordinated Universal Time)

1 54033U 22131A 25170.00963875 .00000147 00000+0 00000+0 0 9997 2 54033 0.0313 109.1439 0000172 35.3503 149.4533 1.00273250 9839
UTC large
Height (km)
Speed (km/s)
/
Latitude / Longitude
Inclination (degrees)
Orbital Period (minutes)
Azimuth
Elevation
Range (km)
Doppler Factor

Next 0 passes for location: London (51.5072 / 0.1276)

Sorry there are no passes over London.